Theta_e
302 302 303 304 304 304 305 306 308 308 308 307 309 309 309 311 312 313 315 313 316 317 318 319 320 321 323 319 318 317 323 324 320 319 319 319 319 318 316 316 316 317 317 314 314
302 302 303 304 304 305 305 306 307 308 307 308 309 310 309 311 313 313 313 315 316 317 319 320 319 320 316 314 314 314 316 312 314 318 317 314 317 316 316 315 313 312 311 315 310
301 302 303 304 304 305 305 307 307 307 308 308 309 309 310 310 312 312 315 315 316 317 318 319 320 318 313 312 311 312 316 314 313 313 315 314 313 313 313 313 312 311 310 306 305
302 302 302 303 304 305 305 307 307 308 308 309 309 308 310 311 310 312 314 315 316 317 318 319 320 314 311 314 312 313 311 312 312 312 313 312 311 311 311 311 309 308 305 304 303
302 302 303 303 304 305 306 306 307 308 309 309 309 309 310 311 309 311 313 315 316 316 318 319 318 311 313 312 312 312 311 310 310 310 310 310 310 309 309 308 306 306 306 306 305
301 302 303 303 304 305 306 306 307 308 309 309 309 309 310 307 309 311 313 314 315 318 319 319 313 313 310 309 310 311 310 310 310 309 309 309 308 309 308 308 307 306 306 306 305
301 302 303 304 304 305 306 306 307 308 309 308 308 309 309 308 310 311 313 315 316 317 317 315 315 315 310 309 309 309 310 309 308 309 308 309 309 309 308 307 307 306 306 306 305
301 302 302 304 304 305 306 306 308 308 308 307 308 308 307 309 310 311 311 314 314 315 315 313 314 313 309 309 309 308 308 312 309 307 306 309 309 308 307 307 307 306 306 306 306
300 302 303 304 305 306 306 307 308 307 308 308 308 307 307 309 311 310 311 312 313 313 313 313 312 309 310 311 308 305 310 311 309 306 308 309 309 308 307 307 307 307 306 306 306
300 302 303 304 305 306 306 306 307 308 308 308 308 308 308 309 310 310 310 311 312 313 313 312 310 309 308 309 313 308 310 309 309 308 308 309 309 308 307 307 307 307 306 306 306
300 301 303 304 305 306 305 306 308 308 308 307 308 308 309 309 310 310 310 310 311 311 309 306 312 310 306 305 305 306 309 309 308 307 309 308 309 309 306 306 306 306 306 306 306
300 301 303 304 305 305 306 307 307 307 306 307 308 309 309 310 310 310 311 310 309 308 306 309 307 304 304 305 307 309 310 309 308 308 309 307 309 307 306 307 306 306 306 306 305
300 301 303 304 305 305 306 307 307 307 306 307 307 308 308 309 307 308 309 307 305 306 306 309 305 303 304 307 308 305 310 308 310 309 308 309 309 308 307 305 305 305 306 306 305
300 301 303 304 305 306 307 307 307 307 307 306 306 307 308 309 307 307 307 307 305 304 303 304 302 305 305 305 305 308 304 307 310 310 311 308 312 309 309 308 305 306 305 304 304
300 301 303 304 305 308 308 308 307 312 312 306 305 306 307 307 307 307 307 308 305 303 306 303 303 304 305 303 303 305 306 308 307 308 310 310 311 311 307 308 308 306 305 304 304
300 301 302 304 306 308 308 308 310 311 307 306 305 306 306 306 307 306 306 306 303 303 303 302 302 303 303 303 304 306 308 308 307 308 309 308 311 311 310 310 309 307 305 305 304
300 301 302 304 307 309 308 309 311 312 306 305 305 305 305 305 306 306 306 307 307 308 305 302 303 302 303 307 307 307 309 313 310 311 311 306 310 312 309 307 308 307 305 305 304
299 301 302 304 308 309 308 309 308 305 307 304 305 305 306 305 306 307 307 308 305 303 303 306 306 303 302 305 308 309 309 319 315 311 311 307 310 313 306 303 304 305 305 305 304
299 301 303 305 310 308 308 310 310 307 308 305 305 305 305 306 307 307 306 308 307 303 308 306 303 301 302 303 305 309 313 308 311 307 310 310 308 308 304 304 303 303 304 304 305
300 301 303 305 310 309 308 310 307 306 306 306 307 306 305 306 307 307 307 306 306 306 304 304 305 301 301 303 305 307 305 311 308 312 312 307 307 311 307 306 304 303 304 304 305
301 306 307 306 308 308 308 305 307 310 306 307 307 306 305 306 306 307 307 305 305 306 302 302 307 302 301 303 307 308 309 304 307 307 312 309 308 306 306 305 306 304 304 305 305
304 307 310 308 306 302 307 305 308 310 309 307 307 307 307 306 307 307 307 306 305 305 306 302 305 304 302 301 301 303 306 306 317 309 308 307 308 303 303 302 303 304 304 304 304
304 309 310 307 307 306 306 308 309 307 308 307 308 307 306 307 308 306 305 303 305 306 306 303 305 307 304 303 302 304 304 298 301 305 308 312 308 302 301 301 302 303 303 303 303
306 304 310 307 305 307 308 308 308 308 307 308 307 307 307 306 305 305 304 303 304 305 304 304 303 307 313 309 303 302 301 297 302 310 307 307 304 304 302 301 301 301 301 301 301
307 305 308 307 306 306 306 308 307 307 307 308 307 307 307 306 305 304 303 303 303 305 303 305 306 303 303 304 300 302 303 301 300 304 311 304 304 304 303 300 301 301 300 300 299
308 305 306 307 307 306 307 307 306 306 307 307 308 307 306 306 308 306 304 304 306 302 304 301 305 304 303 304 303 306 302 303 302 302 301 300 301 301 300 300 300 300 299 299 299
309 308 309 306 307 307 306 307 306 306 306 307 308 307 307 306 305 304 303 303 303 304 303 303 304 305 304 302 302 305 303 304 303 303 304 304 305 300 300 300 299 299 299 299 299
Wind_Speed
1 1 2 2 2 2 2 2 5 4 7 9 8 4 6 14 20 21 20 16 14 7 8 12 20 23 28 30 22 16 9 13 8 4 10 10 17 24 20 29 35 19 23 18 13
3 1 2 2 2 0 2 2 4 4 8 10 7 4 2 8 16 22 16 12 10 5 14 13 17 17 23 15 12 10 7 6 9 23 17 16 25 15 13 22 20 20 18 14 13
4 3 2 2 2 1 2 3 3 4 8 9 7 6 2 3 9 20 15 11 10 8 18 18 19 33 26 20 11 9 10 23 23 27 28 29 22 13 20 16 12 15 15 18 19
5 4 3 2 2 2 1 5 4 4 6 8 8 7 3 1 4 16 15 13 9 11 19 15 14 15 13 14 13 27 23 23 23 21 17 18 17 27 23 16 16 18 20 22 24
5 6 5 3 3 4 2 5 5 5 5 7 9 11 12 18 14 16 15 12 8 8 12 20 35 17 16 29 37 28 24 24 27 27 25 28 24 23 22 19 23 24 24 24 24
5 6 5 4 3 4 3 4 6 6 5 7 8 10 11 17 14 15 15 9 5 14 23 17 25 42 24 8 10 22 36 30 24 21 13 19 9 7 12 16 22 23 23 22 23
6 6 6 5 4 4 4 5 7 7 5 7 5 9 15 11 13 14 18 17 14 17 31 39 37 4 21 29 28 30 28 14 6 7 10 9 13 11 11 14 20 19 19 19 19
7 6 5 5 5 4 4 6 8 6 6 6 5 10 9 11 11 14 21 23 17 24 26 21 31 41 17 33 18 6 4 5 6 2 5 0 5 6 11 11 15 15 15 15 15
9 8 6 5 6 4 5 6 6 5 5 6 6 11 6 10 12 17 19 23 22 31 29 19 23 32 29 19 6 4 4 8 3 3 3 1 10 14 10 9 12 11 11 10 11
10 9 8 6 6 6 7 6 6 4 2 5 6 11 6 6 12 14 16 19 23 22 16 11 10 8 8 2 4 7 9 5 4 2 5 5 6 19 11 9 9 10 9 7 7
12 10 9 8 8 7 10 10 4 4 13 9 13 15 11 12 9 13 16 15 16 11 5 10 11 10 2 4 3 10 13 10 4 3 4 1 9 13 11 10 10 10 9 7 5
14 12 11 9 9 11 14 7 3 8 11 10 16 16 9 8 9 10 8 4 7 6 3 6 6 3 2 5 11 13 15 6 4 4 3 6 11 9 10 11 11 10 9 7 5
16 13 12 11 11 12 14 6 10 8 6 5 8 9 6 8 7 10 5 11 10 7 7 7 2 3 5 6 14 4 7 5 4 5 8 9 5 11 12 11 12 13 11 11 9
16 14 12 14 13 14 12 11 11 2 4 4 3 3 3 8 8 9 9 5 7 6 6 7 5 6 9 7 2 4 2 6 10 2 1 1 3 8 15 14 15 16 15 13 12
18 17 16 18 8 17 13 11 7 2 2 2 1 3 5 7 6 7 6 6 5 3 2 1 3 6 8 2 1 3 6 7 3 4 3 4 3 2 8 15 18 20 18 16 14
20 20 18 17 15 17 14 11 3 6 4 2 1 1 5 6 4 4 5 10 8 7 15 4 4 3 3 3 6 10 6 5 3 1 1 1 4 2 5 11 14 20 21 20 18
22 21 22 21 17 18 17 10 4 3 2 3 3 3 4 3 4 4 3 3 3 5 2 3 3 2 3 7 3 3 3 2 1 2 2 2 4 7 4 6 13 23 25 23 20
24 23 22 21 22 20 18 4 3 2 4 2 4 3 4 2 3 2 2 3 2 5 3 5 3 0 3 2 5 3 2 4 4 2 1 2 6 3 2 7 9 15 26 25 22
27 25 22 21 23 23 19 2 7 6 6 7 5 3 2 2 5 3 2 4 2 3 4 4 3 3 3 2 2 4 3 3 6 2 1 3 5 6 2 2 3 12 23 27 22
33 27 24 23 23 25 5 5 2 5 7 4 4 3 4 6 4 4 5 2 4 2 2 5 5 1 1 3 9 1 8 3 1 4 4 3 4 4 2 3 5 11 21 24 20
34 16 22 24 22 18 5 5 4 8 13 4 4 4 4 5 5 5 7 1 3 4 5 4 3 0 1 4 7 3 2 4 3 1 3 2 3 2 3 6 8 14 20 23 18
29 5 25 28 9 4 5 6 3 6 5 4 5 3 5 4 4 3 7 2 9 12 6 2 5 4 1 1 2 1 2 5 3 5 1 1 4 2 8 8 10 12 16 15 13
27 8 25 26 4 3 3 1 2 3 5 4 4 3 2 5 4 3 4 1 10 6 8 8 2 3 0 1 2 3 1 3 3 2 7 4 2 3 2 6 7 9 8 7 8
20 3 6 13 4 7 7 4 2 5 5 5 5 4 4 3 4 5 3 1 4 5 10 8 3 3 5 3 4 4 4 2 2 3 5 6 2 4 5 8 8 9 10 12 12
15 6 11 5 5 9 14 13 12 6 3 7 3 4 6 4 2 4 3 3 2 9 4 4 4 3 1 1 3 4 5 10 8 3 6 2 7 4 8 6 8 15 16 14 11
17 11 10 12 15 11 13 8 20 5 6 4 4 5 4 7 8 9 8 4 5 4 2 1 4 3 2 2 2 4 7 10 13 7 11 4 6 6 4 12 14 14 13 11 8
20 20 24 14 12 7 8 8 12 8 4 6 10 6 4 1 5 10 7 13 13 7 3 3 6 3 2 1 1 7 11 15 8 6 7 9 4 13 9 12 14 12 11 9 7
Wind_Direction
305 130 147 116 81 59 52 75 87 56 10 18 35 63 72 69 58 55 50 17 28 59 111 110 97 94 86 70 65 79 98 103 117 101 112 114 95 74 87 78 69 76 82 84 73
288 235 172 152 113 69 83 77 84 25 359 358 24 8 342 69 56 49 46 41 37 111 126 135 82 93 65 51 47 65 84 55 112 117 114 98 91 96 95 83 77 82 77 82 74
284 261 216 180 156 168 135 106 80 24 357 357 17 3 268 7 46 20 54 33 42 148 137 117 94 83 64 53 39 55 95 104 99 110 111 101 91 107 96 71 93 107 98 88 80
273 265 236 216 178 158 191 124 102 48 14 3 22 17 47 57 64 23 51 32 42 164 147 122 93 69 73 68 73 104 93 110 114 110 106 90 100 81 86 99 102 97 93 87 82
258 259 245 228 199 147 224 135 119 78 36 11 32 58 96 83 34 47 58 46 44 147 152 121 106 82 90 96 88 89 99 97 104 100 97 102 87 95 91 102 100 97 91 84 78
235 250 252 237 221 151 215 152 127 97 57 21 40 73 92 70 49 47 64 56 99 136 132 134 117 113 96 64 51 119 106 106 101 105 106 97 83 96 107 111 104 100 95 90 83
226 233 244 241 235 166 199 167 133 100 64 29 36 91 81 77 63 63 72 70 95 120 116 119 121 133 109 91 110 110 106 101 90 111 119 79 58 94 131 125 110 106 101 95 86
215 214 229 235 232 178 184 181 134 102 69 43 52 97 77 87 81 95 91 101 86 107 110 111 120 109 105 121 116 88 67 112 192 356 32 200 146 147 141 134 117 110 102 95 88
206 208 201 212 224 176 174 185 132 96 72 58 78 104 88 101 115 97 103 99 101 108 100 107 92 104 120 126 116 49 109 118 164 30 131 42 146 186 175 158 129 122 115 108 98
213 201 190 198 205 164 168 172 127 87 74 91 72 89 84 83 94 95 107 114 118 119 105 72 85 107 122 336 157 148 127 147 134 29 59 86 145 170 184 175 160 148 143 131 115
218 197 187 191 182 160 160 146 119 76 71 69 91 92 93 99 101 112 116 120 122 112 68 36 106 120 25 358 80 108 121 109 86 61 98 294 160 177 181 183 185 181 172 164 142
212 197 187 181 172 167 170 139 156 135 82 78 93 90 85 111 109 92 126 92 101 81 97 60 83 351 50 88 96 106 115 93 100 16 108 157 173 191 204 210 205 199 184 179 179
206 189 183 179 164 175 180 158 144 127 91 41 82 89 66 108 54 37 98 94 75 65 50 97 55 79 128 101 107 48 124 155 130 102 74 132 194 214 222 221 221 222 207 204 199
203 183 178 176 160 176 172 163 165 160 82 318 3 64 93 123 56 64 81 99 50 107 83 72 7 93 92 83 44 87 87 113 124 96 86 353 306 211 206 210 218 212 207 209 198
195 183 179 174 157 167 167 169 178 304 78 252 49 108 82 88 135 41 62 84 89 78 179 70 47 81 72 5 9 130 131 117 107 98 164 184 275 147 199 217 217 211 208 208 201
192 186 179 178 167 171 165 167 165 45 238 145 99 108 84 49 51 79 83 85 108 65 53 91 78 54 116 69 96 138 100 64 66 40 327 54 217 239 183 232 216 210 204 204 201
191 188 180 173 176 166 166 158 49 145 309 174 138 115 84 68 63 38 47 58 131 107 61 30 17 27 79 99 69 97 111 37 18 17 263 359 202 277 238 236 223 206 198 201 199
183 190 181 177 167 168 164 57 147 213 184 138 108 98 111 135 35 56 73 122 80 89 121 149 195 55 6 68 156 110 156 153 198 202 324 103 238 245 259 289 246 215 195 196 199
182 183 181 177 165 172 163 115 208 203 160 138 94 95 113 107 120 100 48 182 182 155 120 137 91 327 57 106 320 159 179 102 107 56 248 212 261 266 304 24 170 180 184 192 200
175 175 183 174 170 173 124 233 250 201 123 116 123 146 165 159 115 152 180 201 151 122 118 175 113 318 154 89 48 245 134 128 41 175 240 224 263 247 288 214 181 182 184 193 202
169 154 175 170 169 160 154 230 241 221 140 131 138 133 172 154 144 166 174 194 157 112 85 131 99 179 224 206 168 143 166 65 107 185 210 272 231 201 279 255 207 195 190 194 204
157 125 167 158 146 129 141 182 229 190 182 123 116 110 151 156 132 143 174 185 172 151 138 137 116 133 250 35 53 129 214 172 156 190 190 353 270 324 278 256 211 195 196 206 225
162 112 168 173 139 156 130 104 270 182 184 149 128 150 129 142 128 122 136 190 163 155 153 175 121 108 138 224 360 216 134 90 93 87 191 168 232 353 24 123 177 183 199 222 247
154 105 155 190 199 147 137 139 263 238 187 133 114 99 108 100 31 137 125 172 159 141 142 140 114 176 193 160 129 176 185 197 144 166 169 225 166 188 127 105 121 133 139 135 129
164 161 165 166 209 160 161 159 199 216 206 162 106 188 149 122 89 125 125 129 75 149 91 132 128 118 188 171 158 170 166 187 202 193 206 148 200 185 181 152 138 136 132 131 126
160 137 154 173 162 151 170 187 188 167 151 202 173 161 152 153 188 186 142 185 186 172 136 74 141 141 126 164 230 250 203 203 217 237 256 242 248 193 170 147 140 140 138 126 111
160 164 162 153 174 164 187 164 187 163 183 204 179 124 150 185 122 126 152 149 149 138 128 128 138 143 186 59 293 281 222 196 190 194 207 218 233 159 156 154 144 141 138 126 106